Home   Weather   Wilmington   Past weeks

Flag for USA Past Weather in Wilmington, Delaware, USA — Yesterday and Last 2 Weeks

Now
42 °F

Low clouds.


Feels Like: 40 °F
Forecast: 39 / 52 °F
Wind: 3 mph from Southwest

Location: New Castle County Airport

Current Time: Dec 5, 2016 at 9:54:45 am

Latest Report: Dec 5, 2016 at 8:51 am


Visibility: 7 mi

Pressure: 30.02 "Hg

Humidity: 96%

Dew Point: 41 °F

Location of WilmingtonLocation

Past Weather in Wilmington — Graph

°F

Wilmington Temperature Yesterday

Maximum temperature yesterday: 47 °F (at 10:51 am)
Minimum temperature yesterday: 40 °F (at 7:51 am)
Average temperature yesterday: 44 °F

High & Low Weather Summary for the Past Weeks

 TemperatureHumidityPressure
High63 °F (Dec 1, 1:51 am)100% (Nov 29, 12:51 pm)30.37 "Hg (Nov 29, 12:51 pm)
Low26 °F (Nov 23, 2:51 am)34% (Nov 21, 12:51 pm)29.51 "Hg (Dec 1, 12:51 am)
Average46 °F66%30.06 "Hg
* Reported Nov 20 7:51 am — Dec 5 7:51 am, Wilmington, Weather by CustomWeather, © 2016

Note: Actual official high and low records may vary slightly from our data, if they occured in-between our weather recording intervals... More about our weather records

Advertising

Wilmington Weather History for the Previous 24 Hours

Scroll right to see more
 ConditionsComfort  
Time TempWeatherWind HumidityBarometerVisibility
7:51 am
Mon, Dec 5
41 °FLow clouds.6 mph96%30.01 "Hg8 mi
6:51 am41 °FLow clouds.7 mph96%30.02 "Hg9 mi
5:51 am40 °FLow clouds.12 mph97%30.01 "Hg9 mi
4:51 am39 °FLight rain. Fog.10 mph96%30.03 "Hg5 mi
3:51 am39 °FLight rain. Mostly cloudy.9 mph96%30.03 "Hg7 mi
2:51 am40 °FLight rain. Overcast.9 mph89%30.05 "Hg9 mi
1:51 am41 °FLight rain. Overcast.8 mph80%30.06 "Hg10 mi
12:51 am41 °FLight rain. Mostly cloudy.13 mph76%30.07 "Hg10 mi
11:51 pm
Sun, Dec 4
43 °FMostly cloudy.9 mph62%30.11 "Hg10 mi
10:51 pm43 °FOvercast.8 mph62%30.14 "Hg10 mi
9:51 pm42 °FPassing clouds.5 mph68%30.15 "Hg10 mi
8:51 pm42 °FClear.5 mph71%30.16 "Hg10 mi
7:51 pm43 °FClear.No wind60%30.18 "Hg10 mi
6:51 pm44 °FClear.No wind58%30.19 "Hg10 mi
5:51 pm43 °FClear.3 mph58%30.19 "Hg10 mi
4:51 pm43 °FClear.6 mph58%30.21 "Hg10 mi
3:51 pm45 °FSunny.6 mph51%30.21 "Hg10 mi
2:51 pm47 °FSunny.8 mph48%30.20 "Hg10 mi
1:51 pm47 °FSunny.8 mph48%30.22 "Hg10 mi
12:51 pm47 °FSunny.6 mph46%30.22 "Hg10 mi
11:51 am47 °FSunny.9 mph46%30.24 "Hg10 mi
10:51 am47 °FPassing clouds.8 mph46%30.27 "Hg10 mi
9:51 am46 °FSunny.8 mph46%30.27 "Hg10 mi
Weather by CustomWeather, © 2016

See weather overviewHow to use our weather pages